Погода в Терновке

Россия / Волгоградская область     49°46′10″N   43°48′41″E
темп.,
°C
ветер,
м/с
пор.,
м/с
влажн.,
%
обл.,
%
осадки,
мм/ч
давл.,
гПа
погр.,
м
22 апреля, чт
чт2200:00+9ююз46803 0.1 1020103
03:00+8юз33845 0.1 102143
06:00+8юз348615 0.0 102289
09:00+13юз33630 0.0 1022515
12:00+16юз344712 0.0 10221870
15:00+16з3346100 0.0 10211211
18:00+14с2261100 0.0 102229
21:00+13вюв115999 0.0 102311
23 апреля, пт
пт2300:00+12св2262100 0.0 102215
03:00+12св2263100 0.0 102224
06:00+11вюв2369100 0.0 102254
09:00+14ююв2257100 0.0 1022296
12:00+17ююв3242100 0.1 10202063
15:00+15з3352100 0.3 10201102
18:00+13всв446920 0.8 1019229
21:00+12ююв117180 0.8 101914
24 апреля, сб
сб2400:00+10ю348030 0.0 101747
03:00+9ю348376 0.0 101649
06:00+10юз3582100 0.0 1015119
09:00+14юз575450 0.0 1015783
12:00+17юз8942100 0.0 10132487
15:00+14зюз8115792 0.3 10131711
18:00+10з71066100 0.4 10141137
21:00+8юз47694 0.4 1015142
25 апреля, вс
вс2500:00+6юз497536 0.0 1015185
03:00+5зюз6128596 0.1 1016578
06:00+4зюз5107527 0.0 1018746
09:00+8з566533 0.0 10181012
12:00+12з674321 0.0 10182016
15:00+13з6736100 0.0 10182238
18:00+11зсз4645100 0.0 1018465
21:00+8сз2250100 0.0 101921
26 апреля, пн
пн2600:00+8св2254100 0.0 101921
03:00+7в2255100 0.0 101827
06:00+7юв226091 0.0 101731
09:00+11юз344297 0.0 10171276
12:00+14зюз5733100 0.0 10162582
15:00+14зюз81037100 0.0 10152722
18:00+11з794517 0.1 10161519
21:00+7з22625 0.1 101833